Bethel, AK

9:27 AM AKDT on May 23, 2017 (GMT -0800)
Bethel

Weather History for PABE - October, 2013

Change the Weather History Date:

Friday, October 25, 2013

  Actual Average Record
Temperature  
Mean Temperature 42 °F 26 °F  
Max Temperature 46 °F 31 °F 49 °F (1923)
Min Temperature 38 °F 20 °F -1 °F (1996)
Degree Days  
Heating Degree Days 23 39  
Month to date heating degree days 643 830  
Since 1 July heating degree days 1838 2048  
Cooling Degree Days 0 0  
Month to date cooling degree days 0 0  
Year to date cooling degree days 18 4  
Moisture  
Dew Point 36 °F    
Average Humidity 0    
Maximum Humidity 0    
Minimum Humidity 0    
Precipitation  
Precipitation 0.01 in 0.05 in 0.46 in (2002)
Month to date precipitation 3.59 1.38  
Year to date precipitation 16.59 15.55  
Snow  
Snow 0.00 in 0.20 in 2.60 in (2004)
Month to date snowfall T 3.0  
Since 1 July snowfall T 3.6  
Since 1 September snowfall 0.0 3.6  
Snow Depth 0.00 in    
Sea Level Pressure  
Sea Level Pressure 29.56 in    
Wind  
Wind Speed 21 mph (SE)    
Max Wind Speed 32 mph    
Max Gust Speed 43 mph    
Visibility 10 miles    
Events Rain    
T = Trace of Precipitation, MM = Missing Value Source: NWS Daily Summary

Daily Weather History Graph

Daily Weather History Graph

Search for Another Location

Airport or City:

Trip Planner

Search our weather history database for the weather conditions in past years. The results will help you decide how hot, cold, wet, or windy it might be!

Date:

Astronomy

Oct. 25, 2013 Rise Set
Actual Time 9:55 AM AKDT 7:05 PM AKDT
Civil Twilight 9:10 AM AKDT 7:50 PM AKDT
Nautical Twilight 8:20 AM AKDT 8:40 PM AKDT
Astronomical Twilight 7:31 AM AKDT 9:29 PM AKDT
Moon No Moon Rise 4:09 PM AKDT (10/25)
Length of Visible Light 10h 39m
Length of Day
9h 09m
Waning Gibbous, 61% of the Moon is Illuminated
Oct 25
Waning Gibbous
Oct 26
Last Quarter
Nov 3
New
Nov 9
First Quarter
Nov 17
Full

Hourly Weather History & Observations

Time (AKDT) Temp. Windchill Dew Point Humidity Pressure Visibility Wind Dir Wind Speed Gust Speed Precip Events Conditions
12:53 AM 39.9 °F 31.1 °F 34.0 °F 79% 29.22 in 10.0 mi ESE 17.3 mph - N/A   Mostly Cloudy
1:53 AM 39.9 °F 30.8 °F 35.1 °F 83% 29.24 in 10.0 mi ESE 18.4 mph 28.8 mph 0.00 in Rain Light Rain
2:53 AM 41.0 °F 31.1 °F 35.1 °F 79% 29.26 in 10.0 mi ESE 23.0 mph 32.2 mph 0.00 in   Overcast
3:53 AM 39.9 °F 30.2 °F 35.1 °F 83% 29.27 in 10.0 mi ESE 20.7 mph 28.8 mph N/A   Overcast
4:53 AM 39.9 °F 30.2 °F 35.1 °F 83% 29.29 in 10.0 mi ESE 20.7 mph 27.6 mph 0.00 in Rain Light Rain
5:05 AM 39.2 °F 29.6 °F 35.6 °F 87% 29.29 in 10.0 mi ESE 19.6 mph 28.8 mph 0.00 in   Overcast
5:53 AM 39.9 °F 30.8 °F 35.1 °F 83% 29.33 in 10.0 mi SE 18.4 mph 27.6 mph 0.00 in Rain Light Rain
6:24 AM 39.2 °F 28.7 °F 35.6 °F 87% 29.35 in 10.0 mi SE 23.0 mph 32.2 mph 0.00 in   Overcast
6:53 AM 39.9 °F 30.0 °F 36.0 °F 86% 29.37 in 10.0 mi SE 21.9 mph 32.2 mph 0.00 in Rain Light Rain
7:26 AM 39.2 °F 29.3 °F 35.6 °F 87% 29.38 in 10.0 mi SE 20.7 mph 27.6 mph 0.00 in   Overcast
7:53 AM 39.9 °F 28.8 °F 36.0 °F 86% 29.40 in 10.0 mi SE 27.6 mph 36.8 mph 0.00 in Rain Light Rain
8:53 AM 39.9 °F 30.0 °F 37.0 °F 89% 29.44 in 10.0 mi SE 21.9 mph 29.9 mph 0.00 in   Overcast
9:53 AM 39.9 °F 30.2 °F 36.0 °F 86% 29.47 in 10.0 mi SE 20.7 mph - 0.00 in   Mostly Cloudy
10:53 AM 41.0 °F 31.9 °F 36.0 °F 82% 29.52 in 10.0 mi SE 19.6 mph - N/A   Overcast
11:53 AM 42.1 °F 32.8 °F 36.0 °F 79% 29.55 in 10.0 mi SE 21.9 mph 28.8 mph N/A   Overcast
12:53 PM 43.0 °F 34.2 °F 36.0 °F 76% 29.59 in 10.0 mi SE 20.7 mph 28.8 mph N/A   Overcast
1:53 PM 45.0 °F 36.2 °F 37.0 °F 74% 29.63 in 10.0 mi SSE 24.2 mph 28.8 mph N/A   Overcast
2:50 PM 44.6 °F 35.7 °F 37.4 °F 76% 29.64 in 10.0 mi SSE 24.2 mph 36.8 mph N/A   Overcast
2:53 PM 44.1 °F 35.0 °F 37.0 °F 76% 29.65 in 10.0 mi SSE 24.2 mph 36.8 mph N/A   Mostly Cloudy
3:53 PM 44.1 °F 35.2 °F 37.0 °F 76% 29.68 in 10.0 mi SSE 23.0 mph 29.9 mph N/A   Overcast
4:17 PM 44.6 °F 35.9 °F 37.4 °F 76% 29.68 in 10.0 mi SSE 23.0 mph 34.5 mph N/A   Overcast
4:24 PM 44.6 °F 35.5 °F 37.4 °F 76% 29.69 in 10.0 mi South 25.3 mph 35.7 mph N/A   Overcast
4:53 PM 45.0 °F 36.0 °F 37.0 °F 74% 29.71 in 10.0 mi South 25.3 mph 33.4 mph N/A   Overcast
5:53 PM 44.1 °F 34.6 °F 37.0 °F 76% 29.74 in 10.0 mi South 26.5 mph 39.1 mph 0.00 in   Overcast
6:53 PM 42.1 °F 32.1 °F 37.0 °F 82% 29.78 in 10.0 mi SSE 25.3 mph 35.7 mph 0.00 in Rain Light Rain
7:53 PM 42.1 °F 33.1 °F 37.0 °F 82% 29.82 in 10.0 mi South 20.7 mph 29.9 mph 0.00 in   Mostly Cloudy
8:53 PM 39.9 °F 31.1 °F 37.0 °F 89% 29.86 in 10.0 mi SSE 17.3 mph 25.3 mph N/A   Mostly Cloudy
9:53 PM 39.0 °F 31.0 °F 36.0 °F 89% 29.90 in 10.0 mi SSE 13.8 mph - N/A   Mostly Cloudy
10:53 PM 39.9 °F 31.1 °F 36.0 °F 86% 29.93 in 10.0 mi SSE 17.3 mph - N/A   Mostly Cloudy
11:53 PM 42.1 °F 33.6 °F 37.0 °F 82% 29.96 in 10.0 mi SSE 18.4 mph - N/A   Overcast